Year,Month,Day,Hour,Minute,Value (Times are PST for temperature in C)
2012,08,25,00,02,12.80
2012,08,25,00,03,12.80
2012,08,25,00,04,12.80
2012,08,25,00,05,12.80
2012,08,25,00,06,12.80
2012,08,25,00,07,12.70
2012,08,25,00,08,12.70
2012,08,25,00,10,12.70
2012,08,25,00,11,12.60
2012,08,25,00,12,12.60
2012,08,25,00,13,12.60
2012,08,25,00,14,12.60
2012,08,25,00,15,12.60
2012,08,25,00,16,12.50
2012,08,25,00,17,12.50
2012,08,25,00,18,12.50
2012,08,25,00,19,12.50
2012,08,25,00,20,12.50
2012,08,25,00,21,12.40
2012,08,25,00,22,12.40
2012,08,25,00,23,12.40
2012,08,25,00,25,12.40
2012,08,25,00,26,12.30
2012,08,25,00,27,12.30
2012,08,25,00,28,12.30
2012,08,25,00,29,12.30
2012,08,25,00,30,12.30
2012,08,25,00,31,12.30
2012,08,25,00,32,12.20
2012,08,25,00,34,12.20
2012,08,25,00,35,12.20
2012,08,25,00,36,12.20
2012,08,25,00,37,12.10
2012,08,25,00,38,12.10
2012,08,25,00,39,12.10
2012,08,25,00,40,12.00
2012,08,25,00,41,12.00
2012,08,25,00,42,11.90
2012,08,25,00,43,11.90
2012,08,25,00,44,11.90
2012,08,25,00,45,11.90
2012,08,25,00,46,11.90
2012,08,25,00,47,11.80
2012,08,25,00,48,11.80
2012,08,25,00,49,11.80
2012,08,25,00,50,11.80
2012,08,25,00,51,11.80
2012,08,25,00,52,11.80
2012,08,25,00,53,11.80
2012,08,25,00,54,11.80
2012,08,25,00,56,11.80
2012,08,25,00,57,11.80
2012,08,25,00,58,11.80
2012,08,25,00,59,11.90
2012,08,25,01,00,11.90
2012,08,25,01,01,11.90
2012,08,25,01,02,11.90
2012,08,25,01,03,11.90
2012,08,25,01,05,11.90
2012,08,25,01,06,11.90
2012,08,25,01,07,12.00
2012,08,25,01,08,12.10
2012,08,25,01,09,12.10
2012,08,25,01,11,12.10
2012,08,25,01,12,12.20
2012,08,25,01,13,12.20
2012,08,25,01,14,12.20
2012,08,25,01,15,12.20
2012,08,25,01,16,12.30
2012,08,25,01,17,12.30
2012,08,25,01,18,12.30
2012,08,25,01,19,12.30
2012,08,25,01,20,12.30
2012,08,25,01,21,12.40
2012,08,25,01,22,12.40
2012,08,25,01,23,12.50
2012,08,25,01,24,12.50
2012,08,25,01,25,12.50
2012,08,25,01,26,12.50
2012,08,25,01,27,12.50
2012,08,25,01,28,12.60
2012,08,25,01,29,12.60
2012,08,25,01,30,12.60
2012,08,25,01,31,12.60
2012,08,25,01,32,12.50
2012,08,25,01,33,12.50
2012,08,25,01,34,12.50
2012,08,25,01,35,12.50
2012,08,25,01,36,12.50
2012,08,25,01,37,12.60
2012,08,25,01,38,12.50
2012,08,25,01,39,12.50
2012,08,25,01,40,12.50
2012,08,25,01,41,12.40
2012,08,25,01,42,12.40
2012,08,25,01,44,12.40
2012,08,25,01,45,12.30
2012,08,25,01,46,12.30
2012,08,25,01,47,12.30
2012,08,25,01,49,12.20
2012,08,25,01,50,12.20
2012,08,25,01,51,12.20
2012,08,25,01,52,12.10
2012,08,25,01,53,12.10
2012,08,25,01,54,12.10
2012,08,25,01,55,12.10
2012,08,25,01,56,12.10
2012,08,25,01,58,12.10
2012,08,25,01,59,12.10
2012,08,25,02,00,12.00
2012,08,25,02,01,12.00
2012,08,25,02,02,12.00
2012,08,25,02,03,12.00
2012,08,25,02,04,12.00
2012,08,25,02,06,12.00
2012,08,25,02,07,12.00
2012,08,25,02,08,12.00
2012,08,25,02,09,12.10
2012,08,25,02,10,12.10
2012,08,25,02,12,12.10
2012,08,25,02,13,12.10
2012,08,25,02,14,12.10
2012,08,25,02,15,12.10
2012,08,25,02,17,12.20
2012,08,25,02,18,12.10
2012,08,25,02,19,12.10
2012,08,25,02,20,12.10
2012,08,25,02,22,12.00
2012,08,25,02,23,11.90
2012,08,25,02,24,11.90
2012,08,25,02,25,11.80
2012,08,25,02,27,11.80
2012,08,25,02,28,11.80
2012,08,25,02,29,11.80
2012,08,25,02,30,11.70
2012,08,25,02,32,11.70
2012,08,25,02,33,11.70
2012,08,25,02,34,11.70
2012,08,25,02,36,11.70
2012,08,25,02,37,11.70
2012,08,25,02,38,11.70
2012,08,25,02,39,11.70
2012,08,25,02,41,11.70
2012,08,25,02,42,11.70
2012,08,25,02,43,11.70
2012,08,25,02,44,11.70
2012,08,25,02,45,11.70
2012,08,25,02,46,11.70
2012,08,25,02,47,11.80
2012,08,25,02,48,11.80
2012,08,25,02,49,11.80
2012,08,25,02,50,11.80
2012,08,25,02,51,11.80
2012,08,25,02,52,11.80
2012,08,25,02,53,11.80
2012,08,25,02,54,11.90
2012,08,25,02,55,11.90
2012,08,25,02,56,11.90
2012,08,25,02,57,11.90
2012,08,25,02,58,11.90
2012,08,25,02,59,11.90
2012,08,25,03,00,12.00
2012,08,25,03,01,12.00
2012,08,25,03,02,12.10
2012,08,25,03,03,12.10
2012,08,25,03,04,12.10
2012,08,25,03,05,12.10
2012,08,25,03,06,12.10
2012,08,25,03,07,12.10
2012,08,25,03,09,12.20
2012,08,25,03,10,12.20
2012,08,25,03,11,12.20
2012,08,25,03,12,12.20
2012,08,25,03,14,12.30
2012,08,25,03,15,12.30
2012,08,25,03,16,12.30
2012,08,25,03,17,12.40
2012,08,25,03,18,12.40
2012,08,25,03,19,12.40
2012,08,25,03,20,12.40
2012,08,25,03,21,12.50
2012,08,25,03,22,12.60
2012,08,25,03,23,12.60
2012,08,25,03,24,12.60
2012,08,25,03,25,12.60
2012,08,25,03,26,12.60
2012,08,25,03,27,12.60
2012,08,25,03,28,12.70
2012,08,25,03,29,12.70
2012,08,25,03,30,12.70
2012,08,25,03,31,12.70
2012,08,25,03,32,12.80
2012,08,25,03,34,12.80
2012,08,25,03,35,12.80
2012,08,25,03,36,12.90
2012,08,25,03,37,12.90
2012,08,25,03,39,12.90
2012,08,25,03,40,12.90
2012,08,25,03,41,12.90
2012,08,25,03,42,13.00
2012,08,25,03,43,13.00
2012,08,25,03,45,12.90
2012,08,25,03,46,13.00
2012,08,25,03,47,13.00
2012,08,25,03,48,13.00
2012,08,25,03,50,12.90
2012,08,25,03,51,12.90
2012,08,25,03,52,12.90
2012,08,25,03,53,12.90
2012,08,25,03,54,12.90
2012,08,25,03,55,12.80
2012,08,25,03,56,12.80
2012,08,25,03,57,12.80
2012,08,25,03,58,12.80
2012,08,25,04,00,12.80
2012,08,25,04,01,12.80
2012,08,25,04,02,12.80
2012,08,25,04,03,12.80
2012,08,25,04,05,12.80
2012,08,25,04,06,12.80
2012,08,25,04,07,12.80
2012,08,25,04,08,12.80
2012,08,25,04,09,12.80
2012,08,25,04,11,12.80
2012,08,25,04,12,12.80
2012,08,25,04,13,12.80
2012,08,25,04,14,12.80
2012,08,25,04,16,12.80
2012,08,25,04,17,12.80
2012,08,25,04,18,12.70
2012,08,25,04,19,12.70
2012,08,25,04,21,12.70
2012,08,25,04,22,12.70
2012,08,25,04,23,12.70
2012,08,25,04,24,12.60
2012,08,25,04,25,12.60
2012,08,25,04,26,12.60
2012,08,25,04,27,12.60
2012,08,25,04,29,12.60
2012,08,25,04,30,12.60
2012,08,25,04,31,12.50
2012,08,25,04,33,12.50
2012,08,25,04,34,12.40
2012,08,25,04,35,12.30
2012,08,25,04,36,12.20
2012,08,25,04,38,12.20
2012,08,25,04,39,12.10
2012,08,25,04,40,12.00
2012,08,25,04,42,11.90
2012,08,25,04,43,11.80
2012,08,25,04,44,11.70
2012,08,25,04,45,11.70
2012,08,25,04,46,11.70
2012,08,25,04,47,11.60
2012,08,25,04,48,11.60
2012,08,25,04,49,11.60
2012,08,25,04,50,11.60
2012,08,25,04,52,11.60
2012,08,25,04,53,11.50
2012,08,25,04,54,11.50
2012,08,25,04,55,11.50
2012,08,25,04,56,11.50
2012,08,25,04,57,11.50
2012,08,25,04,58,11.50
2012,08,25,04,59,11.50
2012,08,25,05,01,11.50
2012,08,25,05,02,11.50
2012,08,25,05,03,11.50
2012,08,25,05,04,11.50
2012,08,25,05,05,11.50
2012,08,25,05,06,11.50
2012,08,25,05,07,11.50
2012,08,25,05,08,11.40
2012,08,25,05,09,11.40
2012,08,25,05,10,11.40
2012,08,25,05,11,11.40
2012,08,25,05,12,11.40
2012,08,25,05,13,11.40
2012,08,25,05,14,11.40
2012,08,25,05,16,11.40
2012,08,25,05,17,11.40
2012,08,25,05,18,11.40
2012,08,25,05,19,11.40
2012,08,25,05,21,11.40
2012,08,25,05,22,11.50
2012,08,25,05,23,11.60
2012,08,25,05,24,11.60
2012,08,25,05,25,11.60
2012,08,25,05,26,11.70
2012,08,25,05,27,11.70
2012,08,25,05,28,11.80
2012,08,25,05,30,11.80
2012,08,25,05,31,11.80
2012,08,25,05,32,11.90
2012,08,25,05,33,11.90
2012,08,25,05,34,11.90
2012,08,25,05,35,12.00
2012,08,25,05,36,12.10
2012,08,25,05,37,12.10
2012,08,25,05,38,12.10
2012,08,25,05,39,12.20
2012,08,25,05,40,12.20
2012,08,25,05,41,12.20
2012,08,25,05,42,12.20
2012,08,25,05,43,12.20
2012,08,25,05,44,12.30
2012,08,25,05,45,12.30
2012,08,25,05,46,12.30
2012,08,25,05,47,12.30
2012,08,25,05,49,12.30
2012,08,25,05,50,12.30
2012,08,25,05,51,12.40
2012,08,25,05,53,12.40
2012,08,25,05,54,12.40
2012,08,25,05,55,12.40
2012,08,25,05,56,12.30
2012,08,25,05,57,12.30
2012,08,25,05,58,12.30
2012,08,25,05,59,12.30
2012,08,25,06,00,12.30
2012,08,25,06,01,12.30
2012,08,25,06,03,12.30
2012,08,25,06,04,12.30
2012,08,25,06,05,12.30
2012,08,25,06,06,12.30
2012,08,25,06,07,12.30
2012,08,25,06,08,12.30
2012,08,25,06,09,12.30
2012,08,25,06,10,12.30
2012,08,25,06,11,12.30
2012,08,25,06,12,12.30
2012,08,25,06,14,12.30
2012,08,25,06,15,12.30
2012,08,25,06,16,12.30
2012,08,25,06,17,12.30
2012,08,25,06,19,12.30
2012,08,25,06,20,12.20
2012,08,25,06,21,12.20
2012,08,25,06,22,12.20
2012,08,25,06,23,12.20
2012,08,25,06,24,12.10
2012,08,25,06,25,12.10
2012,08,25,06,26,12.00
2012,08,25,06,27,12.00
2012,08,25,06,28,11.90
2012,08,25,06,29,11.90
2012,08,25,06,30,11.80
2012,08,25,06,31,11.80
2012,08,25,06,32,11.70
2012,08,25,06,33,11.70
2012,08,25,06,34,11.60
2012,08,25,06,35,11.60
2012,08,25,06,36,11.50
2012,08,25,06,37,11.40
2012,08,25,06,38,11.40
2012,08,25,06,40,11.30
2012,08,25,06,41,11.30
2012,08,25,06,42,11.30
2012,08,25,06,43,11.30
2012,08,25,06,44,11.30
2012,08,25,06,45,11.20
2012,08,25,06,46,11.20
2012,08,25,06,47,11.20
2012,08,25,06,48,11.20
2012,08,25,06,50,11.20
2012,08,25,06,51,11.20
2012,08,25,06,52,11.20
2012,08,25,06,53,11.20
2012,08,25,06,54,11.20
2012,08,25,06,55,11.20
2012,08,25,06,56,11.20
2012,08,25,06,57,11.30
2012,08,25,06,58,11.30
2012,08,25,06,59,11.30
2012,08,25,07,00,11.30
2012,08,25,07,01,11.30
2012,08,25,07,02,11.30
2012,08,25,07,03,11.30
2012,08,25,07,04,11.30
2012,08,25,07,05,11.30
2012,08,25,07,06,11.30
2012,08,25,07,07,11.30
2012,08,25,07,08,11.30
2012,08,25,07,09,11.40
2012,08,25,07,10,11.40
2012,08,25,07,11,11.40
2012,08,25,07,12,11.40
2012,08,25,07,13,11.40
2012,08,25,07,15,11.40
2012,08,25,07,16,11.40
2012,08,25,07,17,11.40
2012,08,25,07,18,11.40
2012,08,25,07,19,11.40
2012,08,25,07,20,11.40
2012,08,25,07,21,11.50
2012,08,25,07,22,11.50
2012,08,25,07,23,11.50
2012,08,25,07,25,11.50
2012,08,25,07,26,11.60
2012,08,25,07,27,11.60
2012,08,25,07,28,11.70
2012,08,25,07,30,11.70
2012,08,25,07,31,11.80
2012,08,25,07,32,11.80
2012,08,25,07,33,11.90
2012,08,25,07,35,11.90
2012,08,25,07,36,12.10
2012,08,25,07,37,12.10
2012,08,25,07,38,12.20
2012,08,25,07,39,12.20
2012,08,25,07,40,12.30
2012,08,25,07,41,12.40
2012,08,25,07,42,12.40
2012,08,25,07,44,12.60
2012,08,25,07,45,12.70
2012,08,25,07,46,12.70
2012,08,25,07,47,12.80
2012,08,25,07,49,12.80
2012,08,25,07,50,12.90
2012,08,25,07,51,13.00
2012,08,25,07,52,13.10
2012,08,25,07,53,13.10
2012,08,25,07,54,13.10
2012,08,25,07,55,13.20
2012,08,25,07,56,13.30
2012,08,25,07,57,13.30
2012,08,25,07,59,13.40
2012,08,25,08,00,13.60
2012,08,25,08,01,13.70
2012,08,25,08,02,13.70
2012,08,25,08,03,13.80
2012,08,25,08,04,13.80
2012,08,25,08,05,13.90
2012,08,25,08,06,14.10
2012,08,25,08,07,14.20
2012,08,25,08,09,14.20
2012,08,25,08,10,14.30
2012,08,25,08,11,14.40
2012,08,25,08,12,14.50
2012,08,25,08,13,14.60
2012,08,25,08,15,14.60
2012,08,25,08,16,14.70
2012,08,25,08,17,14.80
2012,08,25,08,18,14.80
2012,08,25,08,20,14.80
2012,08,25,08,21,14.90
2012,08,25,08,22,14.90
2012,08,25,08,24,14.90
2012,08,25,08,25,15.00
2012,08,25,08,26,15.00
2012,08,25,08,27,15.10
2012,08,25,08,29,15.10
2012,08,25,08,30,15.10
2012,08,25,08,31,15.20
2012,08,25,08,32,15.20
2012,08,25,08,33,15.20
2012,08,25,08,34,15.20
2012,08,25,08,36,15.20
2012,08,25,08,37,15.30
2012,08,25,08,38,15.30
2012,08,25,08,39,15.30
2012,08,25,08,41,15.30
2012,08,25,08,42,15.30
2012,08,25,08,43,15.30
2012,08,25,08,45,15.30
2012,08,25,08,46,15.30
2012,08,25,08,47,15.30
2012,08,25,08,48,15.30
2012,08,25,08,50,15.40
2012,08,25,08,51,15.40
2012,08,25,08,52,15.40
2012,08,25,08,53,15.40
2012,08,25,08,55,15.40
2012,08,25,08,56,15.50
2012,08,25,08,57,15.50
2012,08,25,08,59,15.50
2012,08,25,09,00,15.50
2012,08,25,09,01,15.60
2012,08,25,09,02,15.60
2012,08,25,09,04,15.60
2012,08,25,09,05,15.60
2012,08,25,09,06,15.60
2012,08,25,09,07,15.60
2012,08,25,09,09,15.60
2012,08,25,09,10,15.60
2012,08,25,09,11,15.70
2012,08,25,09,12,15.70
2012,08,25,09,14,15.70
2012,08,25,09,15,15.70
2012,08,25,09,16,15.70
2012,08,25,09,17,15.70
2012,08,25,09,18,15.70
2012,08,25,09,20,15.70
2012,08,25,09,21,15.70
2012,08,25,09,22,15.70
2012,08,25,09,23,15.70
2012,08,25,09,24,15.70
2012,08,25,09,25,15.80
2012,08,25,09,26,15.80
2012,08,25,09,27,15.90
2012,08,25,09,29,16.00
2012,08,25,09,30,16.00
2012,08,25,09,31,16.00
2012,08,25,09,33,16.00
2012,08,25,09,34,16.00
2012,08,25,09,35,16.00
2012,08,25,09,36,15.90
2012,08,25,09,38,15.90
2012,08,25,09,39,16.00
2012,08,25,09,40,16.00
2012,08,25,09,41,16.00
2012,08,25,09,42,16.10
2012,08,25,09,43,16.10
2012,08,25,09,44,16.20
2012,08,25,09,45,16.30
2012,08,25,09,46,16.30
2012,08,25,09,47,16.30
2012,08,25,09,48,16.30
2012,08,25,09,49,16.30
2012,08,25,09,50,16.30
2012,08,25,09,51,16.30
2012,08,25,09,52,16.40
2012,08,25,09,54,16.40
2012,08,25,09,55,16.40
2012,08,25,09,56,16.40
2012,08,25,09,57,16.50
2012,08,25,09,58,16.60
2012,08,25,09,59,16.60
2012,08,25,10,00,16.60
2012,08,25,10,01,16.60
2012,08,25,10,02,16.60
2012,08,25,10,04,16.60
2012,08,25,10,05,16.60
2012,08,25,10,06,16.70
2012,08,25,10,07,16.70
2012,08,25,10,09,16.70
2012,08,25,10,10,16.70
2012,08,25,10,11,16.60
2012,08,25,10,12,16.60
2012,08,25,10,13,16.60
2012,08,25,10,14,16.60
2012,08,25,10,15,16.60
2012,08,25,10,16,16.60
2012,08,25,10,17,16.60
2012,08,25,10,18,16.60
2012,08,25,10,20,16.70
2012,08,25,10,21,16.70
2012,08,25,10,22,16.70
2012,08,25,10,23,16.70
2012,08,25,10,25,16.70
2012,08,25,10,26,16.80
2012,08,25,10,27,16.90
2012,08,25,10,28,17.10
2012,08,25,10,30,17.10
2012,08,25,10,31,17.10
2012,08,25,10,32,17.10
2012,08,25,10,33,17.20
2012,08,25,10,35,17.30
2012,08,25,10,36,17.30
2012,08,25,10,37,17.40
2012,08,25,10,38,17.40
2012,08,25,10,39,17.40
2012,08,25,10,40,17.40
2012,08,25,10,41,17.40
2012,08,25,10,42,17.40
2012,08,25,10,43,17.40
2012,08,25,10,45,17.40
2012,08,25,10,46,17.40
2012,08,25,10,47,17.40
2012,08,25,10,48,17.50
2012,08,25,10,49,17.50
2012,08,25,10,50,17.40
2012,08,25,10,51,17.40
2012,08,25,10,52,17.40
2012,08,25,10,53,17.40
2012,08,25,10,54,17.50
2012,08,25,10,55,17.60
2012,08,25,10,57,17.60
2012,08,25,10,58,17.70
2012,08,25,10,59,17.70
2012,08,25,11,00,17.80
2012,08,25,11,02,17.80
2012,08,25,11,03,17.90
2012,08,25,11,04,18.00
2012,08,25,11,05,18.10
2012,08,25,11,07,18.10
2012,08,25,11,08,18.10
2012,08,25,11,09,17.90
2012,08,25,11,10,17.90
2012,08,25,11,11,17.80
2012,08,25,11,12,17.90
2012,08,25,11,13,17.90
2012,08,25,11,15,17.90
2012,08,25,11,16,17.90
2012,08,25,11,17,17.80
2012,08,25,11,18,17.80
2012,08,25,11,19,17.90
2012,08,25,11,20,17.90
2012,08,25,11,21,18.00
2012,08,25,11,22,18.00
2012,08,25,11,23,18.00
2012,08,25,11,25,18.00
2012,08,25,11,26,18.00
2012,08,25,11,27,18.00
2012,08,25,11,29,18.00
2012,08,25,11,30,17.90
2012,08,25,11,31,17.90
2012,08,25,11,33,18.00
2012,08,25,11,34,18.10
2012,08,25,11,35,18.10
2012,08,25,11,36,18.10
2012,08,25,11,37,18.10
2012,08,25,11,39,18.20
2012,08,25,11,40,18.20
2012,08,25,11,41,18.20
2012,08,25,11,43,18.20
2012,08,25,11,44,18.10
2012,08,25,11,45,18.20
2012,08,25,11,47,18.20
2012,08,25,11,48,18.30
2012,08,25,11,49,18.30
2012,08,25,11,50,18.30
2012,08,25,11,51,18.30
2012,08,25,11,53,18.30
2012,08,25,11,54,18.30
2012,08,25,11,55,18.40
2012,08,25,11,56,18.40
2012,08,25,11,58,18.40
2012,08,25,11,59,18.40
2012,08,25,12,00,18.40
2012,08,25,12,01,18.40
2012,08,25,12,03,18.30
2012,08,25,12,04,18.20
2012,08,25,12,05,18.20
2012,08,25,12,06,18.20
2012,08,25,12,08,18.20
2012,08,25,12,09,18.20
2012,08,25,12,10,18.20
2012,08,25,12,11,18.20
2012,08,25,12,13,18.20
2012,08,25,12,14,18.20
2012,08,25,12,15,18.30
2012,08,25,12,16,18.30
2012,08,25,12,18,18.30
2012,08,25,12,19,18.50
2012,08,25,12,20,18.60
2012,08,25,12,22,18.60
2012,08,25,12,23,18.70
2012,08,25,12,24,18.70
2012,08,25,12,25,18.70
2012,08,25,12,27,18.70
2012,08,25,12,28,18.70
2012,08,25,12,29,18.70
2012,08,25,12,30,18.80
2012,08,25,12,32,18.80
2012,08,25,12,33,18.80
2012,08,25,12,34,18.80
2012,08,25,12,35,18.80
2012,08,25,12,37,18.90
2012,08,25,12,38,18.90
2012,08,25,12,39,19.00
2012,08,25,12,40,19.00
2012,08,25,12,42,19.10
2012,08,25,12,43,19.10
2012,08,25,12,44,19.10
2012,08,25,12,46,19.10
2012,08,25,12,47,19.20
2012,08,25,12,48,19.20
2012,08,25,12,49,19.20
2012,08,25,12,50,19.20
2012,08,25,12,52,19.30
2012,08,25,12,53,19.30
2012,08,25,12,54,19.40
2012,08,25,12,55,19.40
2012,08,25,12,56,19.40
2012,08,25,12,57,19.40
2012,08,25,12,58,19.40
2012,08,25,12,59,19.40
2012,08,25,13,01,19.40
2012,08,25,13,02,19.40
2012,08,25,13,03,19.40
2012,08,25,13,04,19.60
2012,08,25,13,06,19.70
2012,08,25,13,07,19.80
2012,08,25,13,08,19.80
2012,08,25,13,09,19.90
2012,08,25,13,10,19.90
2012,08,25,13,11,19.90
2012,08,25,13,12,19.90
2012,08,25,13,13,19.90
2012,08,25,13,14,19.90
2012,08,25,13,15,19.90
2012,08,25,13,16,19.90
2012,08,25,13,17,20.00
2012,08,25,13,19,20.00
2012,08,25,13,20,19.90
2012,08,25,13,21,19.90
2012,08,25,13,22,19.80
2012,08,25,13,24,19.80
2012,08,25,13,25,19.90
2012,08,25,13,26,19.90
2012,08,25,13,27,20.00
2012,08,25,13,29,20.00
2012,08,25,13,30,20.00
2012,08,25,13,31,20.10
2012,08,25,13,32,20.10
2012,08,25,13,33,20.20
2012,08,25,13,34,20.20
2012,08,25,13,35,20.30
2012,08,25,13,36,20.30
2012,08,25,13,37,20.30
2012,08,25,13,38,20.30
2012,08,25,13,39,20.30
2012,08,25,13,40,20.30
2012,08,25,13,41,20.30
2012,08,25,13,42,20.30
2012,08,25,13,43,20.30
2012,08,25,13,44,20.20
2012,08,25,13,45,20.20
2012,08,25,13,46,20.20
2012,08,25,13,47,20.20
2012,08,25,13,48,20.20
2012,08,25,13,49,20.20
2012,08,25,13,50,20.20
2012,08,25,13,51,20.30
2012,08,25,13,52,20.40
2012,08,25,13,53,20.40
2012,08,25,13,54,20.40
2012,08,25,13,55,20.50
2012,08,25,13,56,20.60
2012,08,25,13,57,20.60
2012,08,25,13,58,20.60
2012,08,25,13,59,20.60
2012,08,25,14,00,20.60
2012,08,25,14,01,20.60
2012,08,25,14,02,20.60
2012,08,25,14,03,20.70
2012,08,25,14,04,20.70
2012,08,25,14,05,20.70
2012,08,25,14,06,20.80
2012,08,25,14,07,20.80
2012,08,25,14,09,20.80
2012,08,25,14,10,20.80
2012,08,25,14,11,20.80
2012,08,25,14,12,20.90
2012,08,25,14,13,20.90
2012,08,25,14,14,20.90
2012,08,25,14,15,20.90
2012,08,25,14,16,20.90
2012,08,25,14,17,20.90
2012,08,25,14,18,20.90
2012,08,25,14,19,20.90
2012,08,25,14,20,20.90
2012,08,25,14,21,20.90
2012,08,25,14,22,20.80
2012,08,25,14,23,20.70
2012,08,25,14,24,20.70
2012,08,25,14,25,20.70
2012,08,25,14,26,20.70
2012,08,25,14,28,20.70
2012,08,25,14,29,20.90
2012,08,25,14,30,20.90
2012,08,25,14,31,21.10
2012,08,25,14,32,21.10
2012,08,25,14,34,21.10
2012,08,25,14,35,21.10
2012,08,25,14,36,21.20
2012,08,25,14,37,21.20
2012,08,25,14,38,21.20
2012,08,25,14,39,21.20
2012,08,25,14,40,21.10
2012,08,25,14,41,21.00
2012,08,25,14,42,20.90
2012,08,25,14,44,20.90
2012,08,25,14,45,20.80
2012,08,25,14,46,20.80
2012,08,25,14,47,20.80
2012,08,25,14,48,20.80
2012,08,25,14,50,20.90
2012,08,25,14,51,21.00
2012,08,25,14,52,21.10
2012,08,25,14,53,21.10
2012,08,25,14,54,21.10
2012,08,25,14,56,21.10
2012,08,25,14,57,21.20
2012,08,25,14,58,21.20
2012,08,25,14,59,21.20
2012,08,25,15,00,21.20
2012,08,25,15,02,21.30
2012,08,25,15,03,21.40
2012,08,25,15,04,21.40
2012,08,25,15,05,21.50
2012,08,25,15,06,21.60
2012,08,25,15,08,21.60
2012,08,25,15,09,21.70
2012,08,25,15,10,21.80
2012,08,25,15,12,21.80
2012,08,25,15,13,21.90
2012,08,25,15,14,21.80
2012,08,25,15,15,21.70
2012,08,25,15,17,21.60
2012,08,25,15,18,21.50
2012,08,25,15,19,21.40
2012,08,25,15,20,21.50
2012,08,25,15,22,21.50
2012,08,25,15,23,21.60
2012,08,25,15,24,21.60
2012,08,25,15,26,21.60
2012,08,25,15,27,21.60
2012,08,25,15,28,21.70
2012,08,25,15,29,21.70
2012,08,25,15,31,21.70
2012,08,25,15,32,21.70
2012,08,25,15,33,21.70
2012,08,25,15,34,21.70
2012,08,25,15,35,21.60
2012,08,25,15,37,21.60
2012,08,25,15,38,21.60
2012,08,25,15,39,21.70
2012,08,25,15,40,21.70
2012,08,25,15,42,21.70
2012,08,25,15,43,21.70
2012,08,25,15,44,21.60
2012,08,25,15,45,21.60
2012,08,25,15,47,21.60
2012,08,25,15,48,21.60
2012,08,25,15,49,21.70
2012,08,25,15,50,21.70
2012,08,25,15,51,21.70
2012,08,25,15,53,21.70
2012,08,25,15,54,21.70
2012,08,25,15,55,21.70
2012,08,25,15,56,21.70
2012,08,25,15,58,21.60
2012,08,25,15,59,21.50
2012,08,25,16,00,21.50
2012,08,25,16,01,21.50
2012,08,25,16,02,21.40
2012,08,25,16,04,21.40
2012,08,25,16,05,21.60
2012,08,25,16,06,21.70
2012,08,25,16,07,21.80
2012,08,25,16,09,21.80
2012,08,25,16,10,21.90
2012,08,25,16,11,22.00
2012,08,25,16,12,22.00
2012,08,25,16,14,21.90
2012,08,25,16,15,21.90
2012,08,25,16,16,21.90
2012,08,25,16,17,21.80
2012,08,25,16,19,21.80
2012,08,25,16,20,21.80
2012,08,25,16,21,21.80
2012,08,25,16,22,21.80
2012,08,25,16,24,21.80
2012,08,25,16,25,21.80
2012,08,25,16,26,21.80
2012,08,25,16,27,21.80
2012,08,25,16,29,21.80
2012,08,25,16,30,21.90
2012,08,25,16,31,22.10
2012,08,25,16,32,22.10
2012,08,25,16,33,22.10
2012,08,25,16,34,22.10
2012,08,25,16,35,22.20
2012,08,25,16,36,22.20
2012,08,25,16,38,22.20
2012,08,25,16,39,22.30
2012,08,25,16,40,22.30
2012,08,25,16,41,22.30
2012,08,25,16,42,22.30
2012,08,25,16,44,22.20
2012,08,25,16,45,22.10
2012,08,25,16,46,21.90
2012,08,25,16,47,21.90
2012,08,25,16,49,21.90
2012,08,25,16,50,21.90
2012,08,25,16,51,21.90
2012,08,25,16,52,22.00
2012,08,25,16,54,22.10
2012,08,25,16,55,22.20
2012,08,25,16,56,22.30
2012,08,25,16,57,22.30
2012,08,25,16,58,22.30
2012,08,25,16,59,22.30
2012,08,25,17,00,22.40
2012,08,25,17,01,22.40
2012,08,25,17,02,22.50
2012,08,25,17,03,22.50
2012,08,25,17,04,22.50
2012,08,25,17,05,22.60
2012,08,25,17,06,22.60
2012,08,25,17,07,22.60
2012,08,25,17,08,22.60
2012,08,25,17,09,22.60
2012,08,25,17,10,22.60
2012,08,25,17,12,22.60
2012,08,25,17,13,22.60
2012,08,25,17,14,22.60
2012,08,25,17,16,22.60
2012,08,25,17,17,22.60
2012,08,25,17,18,22.50
2012,08,25,17,19,22.40
2012,08,25,17,20,22.50
2012,08,25,17,22,22.40
2012,08,25,17,23,22.40
2012,08,25,17,24,22.40
2012,08,25,17,25,22.50
2012,08,25,17,27,22.60
2012,08,25,17,28,22.70
2012,08,25,17,29,22.70
2012,08,25,17,31,22.80
2012,08,25,17,32,22.80
2012,08,25,17,33,22.90
2012,08,25,17,34,22.90
2012,08,25,17,35,23.00
2012,08,25,17,36,23.10
2012,08,25,17,37,23.20
2012,08,25,17,38,23.20
2012,08,25,17,39,23.20
2012,08,25,17,40,23.20
2012,08,25,17,41,23.10
2012,08,25,17,42,23.10
2012,08,25,17,43,22.90
2012,08,25,17,44,22.90
2012,08,25,17,45,22.80
2012,08,25,17,47,22.80
2012,08,25,17,48,22.70
2012,08,25,17,49,22.70
2012,08,25,17,50,22.80
2012,08,25,17,51,22.80
2012,08,25,17,52,22.80
2012,08,25,17,53,22.80
2012,08,25,17,54,22.80
2012,08,25,17,55,22.80
2012,08,25,17,56,22.80
2012,08,25,17,58,22.80
2012,08,25,17,59,22.80
2012,08,25,18,00,22.90
2012,08,25,18,01,22.90
2012,08,25,18,02,23.00
2012,08,25,18,03,23.10
2012,08,25,18,04,23.10
2012,08,25,18,05,22.90
2012,08,25,18,06,22.90
2012,08,25,18,08,22.90
2012,08,25,18,09,23.00
2012,08,25,18,10,23.10
2012,08,25,18,11,23.20
2012,08,25,18,12,23.20
2012,08,25,18,13,23.20
2012,08,25,18,14,23.20
2012,08,25,18,15,23.10
2012,08,25,18,16,23.10
2012,08,25,18,17,23.10
2012,08,25,18,18,23.00
2012,08,25,18,19,23.00
2012,08,25,18,20,23.00
2012,08,25,18,22,23.00
2012,08,25,18,23,22.90
2012,08,25,18,24,22.80
2012,08,25,18,25,22.70
2012,08,25,18,26,22.60
2012,08,25,18,27,22.40
2012,08,25,18,28,22.30
2012,08,25,18,29,22.10
2012,08,25,18,30,21.90
2012,08,25,18,31,21.80
2012,08,25,18,32,21.80
2012,08,25,18,33,21.70
2012,08,25,18,34,21.50
2012,08,25,18,35,21.40
2012,08,25,18,37,21.30
2012,08,25,18,38,21.30
2012,08,25,18,39,21.30
2012,08,25,18,40,21.20
2012,08,25,18,41,21.20
2012,08,25,18,42,21.20
2012,08,25,18,43,21.20
2012,08,25,18,44,21.10
2012,08,25,18,45,21.10
2012,08,25,18,46,21.10
2012,08,25,18,47,21.00
2012,08,25,18,48,21.00
2012,08,25,18,50,21.00
2012,08,25,18,51,21.00
2012,08,25,18,52,21.10
2012,08,25,18,53,21.10
2012,08,25,18,55,21.10
2012,08,25,18,56,21.10
2012,08,25,18,57,21.20
2012,08,25,18,58,21.20
2012,08,25,18,59,21.20
2012,08,25,19,00,21.30
2012,08,25,19,01,21.30
2012,08,25,19,02,21.30
2012,08,25,19,03,21.40
2012,08,25,19,05,21.40
2012,08,25,19,06,21.60
2012,08,25,19,07,21.60
2012,08,25,19,08,21.60
2012,08,25,19,09,21.70
2012,08,25,19,11,21.70
2012,08,25,19,12,21.60
2012,08,25,19,13,21.60
2012,08,25,19,14,21.60
2012,08,25,19,16,21.50
2012,08,25,19,17,21.40
2012,08,25,19,18,21.30
2012,08,25,19,19,21.20
2012,08,25,19,20,21.10
2012,08,25,19,22,21.00
2012,08,25,19,23,20.80
2012,08,25,19,24,20.80
2012,08,25,19,25,20.70
2012,08,25,19,27,20.60
2012,08,25,19,28,20.40
2012,08,25,19,29,20.30
2012,08,25,19,30,20.30
2012,08,25,19,32,20.20
2012,08,25,19,33,20.10
2012,08,25,19,34,20.00
2012,08,25,19,35,19.90
2012,08,25,19,36,19.90
2012,08,25,19,37,19.80
2012,08,25,19,38,19.60
2012,08,25,19,39,19.50
2012,08,25,19,41,19.40
2012,08,25,19,42,19.30
2012,08,25,19,43,19.30
2012,08,25,19,44,19.20
2012,08,25,19,45,19.20
2012,08,25,19,47,19.10
2012,08,25,19,48,19.10
2012,08,25,19,49,19.00
2012,08,25,19,51,18.90
2012,08,25,19,52,18.90
2012,08,25,19,53,18.80
2012,08,25,19,54,18.80
2012,08,25,19,55,18.70